RH
72 70 70 72 75 78 80 80 79 76 72 66 61 56 52 48 45 42 40 38 36 35 34 32 32 32 31 32 34 34 36 40 40 41 46 50 52 53 56 61 61 59 59 61 64 72 78 81 93 105 96 78 69 67 61 53 60 80 94 101 103 102 103 103 102 102 91 71 70 86 91 86 88 94 98 97 92 89 86 82 78 75 73 70 72 80 75
69 70 74 79 83 84 82 78 71 65 59 53 49 45 42 39 37 35 33 31 30 29 29 27 26 26 25 26 26 25 29 31 33 37 40 43 45 49 55 58 60 62 62 63 67 75 79 81 95 111 103 84 79 76 63 54 55 58 66 89 106 104 100 101 101 104 101 92 95 101 96 92 97 103 106 105 101 93 87 88 91 91 91 88 93 102 91
71 76 83 87 87 82 74 66 58 52 48 44 42 40 37 36 34 33 32 31 29 28 28 26 25 25 24 24 23 21 22 24 26 30 33 36 40 43 47 50 56 65 69 68 68 73 81 85 97 112 107 92 87 84 70 59 57 53 52 69 93 101 101 101 99 101 102 101 103 105 103 104 106 106 107 106 104 102 96 96 100 102 102 100 103 107 98
81 86 89 86 78 68 59 53 49 47 46 44 42 40 39 38 36 35 33 32 31 30 28 27 25 23 23 23 23 21 19 20 22 25 27 30 34 37 41 46 53 61 69 70 69 74 81 85 97 111 109 104 102 94 78 65 57 55 52 53 69 86 95 102 102 100 100 100 100 101 105 108 108 105 105 106 105 104 102 103 103 102 103 104 104 104 102
90 88 82 72 62 55 51 50 50 48 47 46 44 42 41 39 37 35 34 32 31 30 29 28 25 23 22 21 22 21 19 19 21 22 24 25 29 35 39 44 48 53 65 72 73 80 85 86 98 106 102 106 111 97 82 75 65 59 56 52 54 62 72 91 103 102 99 100 100 100 101 102 105 104 105 107 107 104 104 104 103 103 104 103 101 102 104
87 77 66 57 53 52 53 52 51 50 49 47 45 42 40 38 35 33 32 31 30 29 28 26 24 23 22 21 20 20 18 19 20 21 22 22 25 31 35 40 44 47 59 70 74 82 86 84 91 95 90 98 110 99 85 81 75 67 62 58 56 53 53 64 79 90 98 102 101 100 100 99 100 101 103 105 105 106 107 104 103 104 104 103 101 102 105
72 61 55 53 54 54 53 53 51 50 48 46 43 41 38 36 34 32 31 30 30 29 27 25 24 23 21 19 18 17 17 18 19 19 21 22 24 28 32 36 41 43 50 62 73 82 85 83 90 96 95 101 108 100 89 85 82 77 72 66 63 60 56 54 56 65 79 93 102 103 101 98 96 95 97 99 100 103 107 106 105 106 103 102 105 104 103
58 54 55 56 56 55 54 53 51 48 46 43 41 40 37 36 35 32 31 30 30 30 27 25 24 22 19 17 15 15 15 16 18 19 20 22 24 27 30 33 39 43 46 54 68 80 84 88 97 102 103 105 104 100 96 94 91 86 82 78 72 66 64 61 57 55 57 69 86 93 91 89 86 82 81 83 86 91 97 99 103 108 109 107 108 107 105
55 56 57 56 56 56 54 52 49 46 45 43 41 40 38 37 36 33 32 30 30 30 28 25 25 21 17 15 14 15 15 15 17 19 20 23 25 26 28 32 36 41 45 51 63 75 83 91 100 106 107 107 106 105 104 100 97 92 89 89 87 81 76 69 65 62 58 59 66 72 74 72 71 76 81 83 86 87 87 88 92 100 106 108 109 108 106
57 57 57 57 56 55 53 50 48 46 45 44 43 41 39 38 36 35 34 32 31 31 29 26 25 21 17 17 17 17 16 15 16 18 21 23 26 27 27 30 35 39 43 48 56 68 79 90 100 107 109 110 110 111 110 106 102 99 99 101 102 99 92 84 79 74 69 67 64 62 60 57 55 65 78 86 90 95 96 94 93 94 96 99 101 102 103
58 58 57 57 56 54 52 50 48 47 47 46 44 42 41 39 38 36 35 34 33 32 31 29 26 22 19 19 20 20 19 18 17 17 20 23 25 27 29 30 34 38 42 45 50 59 71 83 95 104 109 112 112 110 110 109 108 106 107 109 108 105 102 101 97 89 80 76 73 69 65 60 56 56 60 63 69 80 91 96 98 100 102 101 100 100 100
59 58 57 56 55 54 52 50 49 49 49 48 46 45 43 42 40 38 36 36 36 34 33 31 29 25 21 20 22 23 22 22 21 18 19 22 24 27 29 31 34 37 39 43 47 52 61 72 85 97 106 112 113 111 109 107 106 105 105 106 106 104 105 106 103 97 93 88 85 82 78 75 75 69 62 59 59 61 67 72 76 82 90 97 104 106 105
59 57 55 56 54 52 51 51 51 51 51 51 51 48 46 45 44 43 40 37 37 37 36 34 33 30 26 23 24 25 25 24 24 23 21 21 23 25 28 31 33 35 38 41 44 48 53 60 71 83 96 106 111 112 110 106 105 105 103 103 104 103 102 104 103 102 103 102 100 98 96 94 94 87 75 70 69 65 61 60 60 62 66 71 79 86 91
57 55 55 55 53 53 53 52 52 52 53 54 54 51 49 48 48 48 45 42 39 38 38 38 37 35 32 28 25 26 27 27 26 26 25 24 23 24 26 29 31 33 35 39 43 46 48 52 59 66 77 90 100 106 109 109 109 108 105 103 103 103 102 104 106 104 105 110 110 106 103 102 101 95 85 81 83 80 72 67 64 63 63 63 63 66 69
55 55 55 54 55 55 54 53 52 53 55 56 56 55 53 53 52 51 50 47 42 40 39 40 40 40 39 36 31 28 27 28 28 29 28 27 26 25 25 27 29 31 34 38 42 44 45 48 52 56 64 75 85 93 99 103 106 107 109 108 105 103 102 102 104 103 103 108 108 103 101 100 99 99 95 91 93 92 84 78 75 70 68 70 69 69 70
55 55 54 55 57 56 53 52 51 54 57 58 59 59 58 57 56 53 51 48 46 45 45 43 41 42 42 42 40 35 31 29 28 29 30 30 30 28 27 27 27 28 31 34 38 41 44 48 50 52 58 64 69 76 83 89 96 100 105 108 107 106 103 101 102 102 102 104 103 100 102 102 100 103 103 99 98 96 91 89 87 82 77 75 74 74 74
55 55 56 57 57 55 52 53 54 56 59 60 61 62 61 59 59 56 53 51 49 49 49 46 44 44 43 43 43 42 40 36 32 30 29 30 31 31 31 30 29 27 27 29 31 33 37 43 48 51 54 54 56 62 67 72 79 86 91 96 101 104 105 105 103 100 101 103 103 103 105 103 102 106 109 106 102 98 98 99 96 94 93 88 84 80 75
56 57 59 58 56 54 54 56 58 59 60 62 62 62 62 61 61 60 58 56 54 51 48 46 46 46 45 45 44 44 44 43 40 37 34 31 30 30 31 32 32 31 30 29 29 30 30 34 38 42 46 49 51 55 57 60 66 73 80 85 90 94 99 104 105 103 103 103 101 102 104 101 100 103 105 104 103 100 101 99 97 100 104 98 91 89 85
58 59 60 58 55 55 57 59 60 61 61 63 63 63 65 65 64 64 62 61 58 53 49 47 47 47 46 46 46 46 46 45 45 44 41 38 35 32 30 31 32 32 33 32 31 31 31 31 32 34 35 39 43 45 48 53 57 62 69 75 78 80 86 94 100 102 104 103 102 105 104 99 99 101 100 99 100 99 97 96 98 106 109 101 93 91 89
60 60 59 58 56 57 58 60 63 64 64 65 66 67 69 69 67 66 65 64 60 56 53 50 49 48 47 46 46 46 47 47 47 47 46 44 42 39 35 33 31 30 31 32 32 32 32 32 32 33 32 32 35 36 38 42 47 52 57 63 66 68 74 82 87 90 94 98 101 102 100 98 101 105 104 103 103 101 99 100 103 106 107 104 99 95 91
62 61 59 59 59 58 60 63 66 67 66 67 69 71 73 72 69 68 66 65 63 61 58 55 52 51 51 50 49 48 47 47 47 47 48 47 46 46 43 39 36 33 31 31 31 31 32 33 32 33 33 32 33 34 34 35 38 41 44 49 53 56 61 68 71 74 80 85 86 85 85 91 98 102 104 106 106 102 101 103 106 106 106 105 104 102 100
62 60 60 61 61 60 60 64 67 67 67 69 71 74 75 73 72 71 68 67 66 64 62 59 56 55 54 55 55 53 51 50 48 47 47 47 47 47 48 46 44 41 37 34 33 32 32 32 33 33 32 32 32 33 33 34 35 36 38 40 42 44 47 52 56 60 64 68 70 71 74 80 86 90 95 100 101 100 99 100 103 105 105 103 103 105 106
61 60 62 64 64 61 61 64 67 67 68 71 74 77 78 76 74 73 71 68 67 66 64 63 61 58 57 57 58 57 56 55 54 51 49 48 47 47 47 47 48 47 45 42 39 36 35 33 33 32 32 31 32 32 32 32 33 34 36 39 41 41 42 45 47 49 51 53 55 57 59 63 67 72 77 82 86 90 92 93 95 97 97 98 99 102 103
60 62 67 70 68 63 62 66 68 68 69 72 76 79 81 80 77 75 73 71 69 68 68 68 68 67 64 61 60 60 59 58 57 56 55 52 51 48 46 45 45 46 47 48 46 44 41 38 37 35 33 32 31 30 31 31 30 31 32 35 38 38 40 43 44 45 46 47 47 49 50 52 54 56 59 62 65 70 73 78 83 85 84 85 86 86 88
60 64 71 73 70 66 66 69 71 71 70 73 77 82 84 82 79 76 75 74 73 72 72 73 74 73 71 68 64 63 62 60 59 59 59 57 55 53 50 48 45 43 43 45 46 47 47 45 42 40 38 36 33 31 31 30 29 29 30 32 34 35 36 37 38 39 41 43 44 46 47 48 49 51 52 52 53 55 56 59 63 66 67 68 69 68 69
61 67 71 72 71 70 69 72 74 74 73 75 79 80 80 79 78 77 78 78 79 79 76 75 76 75 74 72 69 65 64 63 61 61 62 61 59 57 53 51 49 47 45 42 42 43 45 46 46 45 43 40 38 36 35 33 31 30 28 29 31 33 33 34 33 33 34 35 37 40 42 44 46 47 48 48 49 50 51 51 52 53 54 55 56 56 56
65 70 70 71 74 75 72 72 75 76 75 77 78 76 75 77 79 80 82 84 86 86 84 82 82 81 79 77 73 68 65 64 62 61 62 63 64 62 59 56 54 52 50 48 44 41 40 41 43 44 45 44 42 40 38 37 36 35 32 31 31 30 30 31 31 31 31 31 33 35 35 36 37 38 40 42 43 45 47 47 48 49 50 51 51 52 52
68 71 69 73 80 80 75 73 75 76 76 76 74 74 77 81 84 88 92 94 95 96 94 92 90 88 87 85 80 75 70 66 63 61 60 61 64 65 64 62 60 57 55 52 49 46 42 39 38 38 40 42 43 42 41 39 38 37 36 35 35 34 33 32 30 29 28 29 30 31 31 31 32 33 35 36 37 38 40 41 43 44 46 47 48 48 48
70 71 70 77 85 84 77 74 76 76 76 75 73 76 83 87 91 99 103 103 103 103 101 100 98 95 93 92 89 85 81 75 69 65 59 57 61 63 64 64 63 62 60 57 55 52 47 43 39 35 34 36 38 40 41 41 40 39 37 36 36 36 36 36 35 33 31 29 29 29 29 29 29 30 32 32 32 33 34 35 37 38 39 40 41 42 43
71 69 71 80 89 87 78 76 76 74 73 74 75 80 88 93 98 106 108 107 108 109 107 107 105 99 96 95 93 92 90 85 80 75 67 60 57 58 60 62 62 62 61 59 58 56 53 48 44 39 35 33 34 36 38 39 41 40 39 37 36 35 33 33 35 35 35 34 34 33 31 29 28 28 29 30 30 31 31 32 32 33 34 35 35 36 36
71 70 73 81 91 90 81 78 77 72 69 73 79 83 90 95 100 105 106 106 107 108 107 107 105 99 96 95 94 94 93 90 88 85 77 67 60 57 57 58 59 60 60 59 58 56 54 52 48 44 39 36 34 34 36 37 39 39 38 38 37 36 34 32 31 32 32 33 36 37 37 35 33 31 30 29 28 28 28 29 29 30 30 31 31 31 33
73 73 75 83 94 95 86 80 79 74 69 72 79 84 88 92 96 100 101 103 104 103 104 104 102 97 95 94 93 94 93 91 91 91 85 76 68 62 59 58 58 57 58 58 58 56 54 51 49 47 44 41 38 36 35 36 37 37 37 37 36 35 35 33 30 30 30 30 31 34 36 37 37 37 36 35 32 30 29 27 27 27 27 28 28 29 29
78 78 79 87 99 102 91 82 80 78 74 72 75 80 84 88 92 95 96 100 102 102 102 103 101 96 94 91 90 91 91 91 93 95 91 83 74 68 64 62 60 58 56 56 56 56 54 51 48 46 45 44 43 41 38 36 36 36 35 35 35 35 34 33 32 31 31 30 30 30 30 31 32 33 35 36 36 35 34 32 30 28 27 26 26 26 26
85 83 83 93 105 107 98 88 81 80 80 77 74 77 80 82 86 89 91 96 101 101 100 99 97 93 90 89 90 91 91 92 95 97 94 87 79 73 70 67 64 62 59 57 56 55 54 52 49 46 45 45 45 44 42 40 38 37 35 35 34 34 33 33 32 31 31 30 30 30 29 29 28 28 29 30 31 33 34 35 34 33 32 30 28 26 25
91 87 89 102 114 114 106 96 85 81 85 86 83 81 80 80 83 85 87 92 98 101 100 97 92 88 86 87 90 91 89 90 93 95 94 89 83 77 73 71 69 67 63 60 57 55 55 54 51 47 45 44 43 44 44 43 41 39 38 37 36 35 34 33 32 31 31 30 30 30 30 29 28 28 27 27 27 28 28 29 31 32 33 34 33 32 31
94 90 93 107 117 115 112 106 92 82 85 92 94 92 88 85 85 86 88 91 95 98 100 98 91 85 83 84 86 87 86 88 91 93 93 91 86 80 76 74 72 70 66 63 59 56 55 54 52 49 48 46 44 42 42 42 42 41 40 40 40 39 38 37 36 35 35 34 33 32 32 31 30 29 29 29 28 27 26 26 26 26 28 30 32 33 34
91 89 93 105 110 109 111 112 102 88 85 91 99 102 97 92 90 89 90 93 94 94 97 97 90 83 81 82 83 83 84 87 90 92 93 92 88 83 80 78 76 73 69 65 62 58 56 55 53 51 50 48 47 45 42 40 39 39 38 38 40 40 40 40 40 40 39 38 37 36 35 34 32 32 31 30 29 28 27 26 25 24 24 25 27 29 31
88 88 92 99 102 105 112 116 109 97 90 91 99 106 104 97 94 94 94 94 93 92 95 96 91 84 83 83 82 81 84 87 90 92 93 93 89 86 83 81 79 76 72 68 64 61 58 56 54 52 52 50 48 46 44 41 39 37 36 36 36 37 39 40 40 40 40 39 38 37 36 35 33 32 31 31 30 29 28 26 25 25 24 23 23 24 26
88 91 93 96 99 105 111 112 109 105 100 96 99 107 108 101 96 98 99 95 90 91 95 97 93 87 86 85 83 82 84 88 91 94 95 93 90 88 85 82 80 77 73 69 66 62 59 56 53 53 53 52 48 46 45 43 40 37 35 34 34 34 36 38 39 39 39 37 37 36 35 34 33 32 32 32 31 30 29 28 26 26 25 23 23 22 22
88 92 93 95 101 105 106 104 104 107 107 102 102 107 109 104 99 100 99 94 90 93 97 98 94 90 88 86 84 84 87 91 94 97 97 94 91 88 85 82 79 76 72 69 67 63 60 57 54 51 51 51 49 46 44 44 42 37 34 33 33 33 34 36 38 38 38 37 37 36 35 34 34 34 33 34 33 32 30 29 27 26 25 24 23 23 22
88 91 93 97 104 108 104 101 103 105 105 103 102 105 108 105 101 100 99 95 94 98 100 98 95 92 89 85 84 86 90 95 97 98 98 95 92 88 85 81 78 73 69 67 66 63 60 57 53 51 49 48 48 46 43 42 41 38 33 31 31 32 34 35 36 37 38 38 37 37 36 35 35 35 35 35 34 33 32 31 30 28 27 25 23 23 22
86 90 94 101 108 110 106 103 103 103 103 102 101 104 106 104 99 97 98 97 99 101 101 98 96 93 89 86 86 89 93 98 100 101 100 97 94 90 86 81 76 70 66 64 63 61 58 55 51 50 48 46 45 44 42 40 39 36 33 30 29 31 33 34 34 35 37 37 37 36 36 35 35 35 35 35 35 34 33 33 33 32 30 28 26 24 23
84 88 94 102 109 107 104 103 104 103 101 102 102 104 106 102 95 93 97 101 103 104 102 98 96 92 89 88 89 92 98 103 105 105 104 101 96 91 86 80 73 67 63 60 59 58 56 53 48 46 47 46 43 42 41 40 37 35 32 29 28 29 32 34 34 34 36 37 36 35 35 34 33 32 32 33 33 33 33 33 33 33 33 32 30 28 25
82 87 93 101 106 105 102 104 105 103 101 101 101 102 103 99 92 93 101 106 107 106 103 98 95 92 90 90 91 94 101 107 108 107 106 102 96 90 86 80 74 68 62 58 57 55 53 50 45 42 42 43 42 40 39 37 35 33 30 28 26 27 30 32 34 35 36 36 36 34 34 33 32 31 30 30 30 31 32 33 33 33 33 32 32 31 28
80 87 94 100 105 104 101 103 105 104 103 102 101 99 100 97 93 96 105 109 108 105 101 97 94 93 91 91 93 97 103 108 109 108 105 99 92 87 85 82 76 69 62 58 55 52 49 46 43 41 40 40 38 36 34 32 31 29 28 26 25 25 26 29 31 34 35 35 34 34 33 33 32 30 29 28 28 30 31 33 33 33 32 31 31 31 29
81 89 95 102 105 102 99 102 104 104 103 102 99 98 100 100 97 100 106 109 106 102 98 94 93 94 93 94 97 100 105 109 111 109 104 96 88 83 82 80 75 69 62 56 52 48 44 40 39 38 38 37 36 33 30 28 26 25 25 24 23 23 24 26 28 30 33 33 32 31 32 34 34 32 30 28 28 29 31 33 33 32 31 29 28 28 29
83 90 96 101 102 98 97 102 106 104 102 101 100 101 105 105 101 102 107 107 102 98 95 93 94 95 94 96 100 104 108 110 110 106 100 92 84 78 76 74 71 66 61 54 48 44 40 38 35 34 33 32 31 29 27 25 23 21 21 21 21 22 23 25 26 28 29 31 31 30 30 33 34 33 31 29 29 29 31 33 33 31 29 27 25 24 26
83 88 93 97 96 94 98 106 108 105 103 103 102 104 109 108 103 102 105 103 97 94 94 95 96 96 96 98 102 107 110 110 106 102 96 89 80 74 72 70 67 63 59 53 47 42 38 36 34 33 31 28 26 24 22 21 19 18 17 18 18 19 21 24 25 27 28 29 29 29 29 31 33 34 33 31 29 29 30 32 33 32 30 27 24 22 22
81 85 89 92 92 95 102 107 106 104 104 104 103 106 110 108 103 101 101 97 93 92 95 96 96 97 98 100 105 108 109 105 100 96 92 86 80 75 71 69 65 61 56 52 48 43 38 34 33 32 29 25 22 19 18 17 16 15 15 16 17 18 20 22 24 25 27 28 28 28 28 29 32 34 34 32 30 28 29 31 33 33 32 30 27 24 22
81 84 88 91 95 101 105 106 104 106 106 105 105 109 111 107 101 98 95 91 90 93 96 97 97 97 100 103 107 108 105 101 97 93 89 85 82 79 75 69 65 60 53 48 44 41 36 33 31 28 24 20 18 16 14 14 13 13 13 14 15 17 19 21 23 24 26 27 28 28 28 28 30 32 33 31 29 28 27 29 31 34 34 33 32 29 26
82 86 90 95 100 106 108 108 108 108 107 105 107 110 109 103 98 94 90 89 93 97 99 98 98 99 102 105 107 106 102 99 96 93 88 84 84 83 78 71 64 57 51 44 39 34 32 30 28 23 19 15 14 13 12 11 11 12 13 14 15 17 19 20 22 24 26 27 28 28 28 28 29 30 30 30 28 28 27 28 30 33 35 36 35 34 31
84 88 93 99 104 108 110 109 108 106 105 106 109 108 103 97 94 90 89 92 98 100 100 100 100 101 104 107 108 107 104 100 96 92 87 84 83 83 81 75 66 58 51 45 39 33 29 28 25 20 15 13 11 11 11 11 11 12 13 14 16 18 20 22 24 26 27 28 29 29 29 29 29 29 29 29 29 28 27 26 28 31 35 37 38 37 35
Wind_Speed
33 34 34 35 36 36 37 38 39 41 42 44 45 46 47 48 48 48 49 49 50 50 51 52 52 53 54 54 57 56 55 58 59 56 56 56 56 54 50 50 51 51 50 48 45 44 44 44 42 43 45 42 39 40 41 40 41 42 43 41 38 37 38 38 39 43 44 43 43 47 49 49 49 49 51 52 53 54 53 53 54 54 54 54 54 54 55
33 33 34 34 36 36 37 39 40 41 42 44 45 46 46 46 45 44 44 45 44 44 45 46 46 47 49 50 53 53 54 58 59 57 59 59 57 55 53 52 51 50 50 49 47 47 47 46 45 46 48 44 41 43 43 40 40 41 42 42 41 41 41 40 40 41 40 40 42 47 48 48 48 49 51 52 53 54 53 53 54 54 54 54 54 55 55
32 33 33 34 36 37 38 39 40 41 42 42 42 42 41 40 39 39 39 39 39 38 39 40 40 41 43 44 47 48 48 52 55 58 60 60 59 57 56 53 51 51 52 52 50 49 49 48 47 49 50 46 45 46 44 41 41 41 42 44 45 45 44 43 41 40 40 41 44 46 46 47 49 51 52 52 52 53 53 54 54 54 54 55 55 56 56
32 33 33 34 36 37 38 39 39 39 38 38 37 36 36 36 36 36 35 35 35 35 36 37 37 37 38 39 43 44 43 45 49 53 57 59 59 58 56 54 53 53 53 53 52 51 51 51 50 51 51 48 48 50 48 45 43 42 43 45 46 47 47 45 44 45 45 45 45 45 45 47 50 51 51 51 52 53 53 54 55 54 54 55 56 56 56
32 32 33 34 36 37 37 36 35 33 33 32 33 33 33 33 34 34 33 33 32 32 33 35 34 34 35 35 37 40 40 41 44 48 52 55 57 58 58 58 57 55 54 54 53 53 54 53 53 54 54 51 51 52 50 47 45 44 44 44 46 48 48 48 49 50 49 48 47 47 47 48 49 50 50 51 52 52 53 54 54 53 54 56 56 55 57
32 32 33 34 34 33 32 30 29 28 29 29 30 31 31 31 32 31 30 30 29 29 30 30 30 31 32 32 33 35 36 38 40 44 47 49 52 56 59 60 59 57 55 55 55 55 56 56 55 56 54 52 53 53 51 49 48 46 45 44 45 46 47 49 51 52 51 50 50 50 49 49 49 49 50 51 52 53 53 53 53 52 53 54 54 55 58
32 32 32 31 29 27 26 25 25 25 26 27 28 28 29 29 29 28 27 26 26 27 26 26 26 27 27 28 29 30 32 35 37 41 43 45 48 53 57 60 61 59 58 57 56 56 57 56 55 56 55 54 55 54 52 51 50 48 46 45 45 45 45 47 49 51 52 52 53 54 54 53 53 52 52 52 52 52 51 51 52 53 53 52 52 54 57
31 30 28 25 23 22 22 22 23 23 24 25 26 26 26 26 26 26 25 23 23 24 24 22 22 23 23 23 25 26 29 31 34 36 40 42 45 49 54 58 61 60 59 57 57 57 57 56 56 57 56 56 56 55 53 53 52 51 49 48 47 46 46 47 48 48 50 51 55 57 57 57 56 54 54 53 53 52 52 51 52 53 53 54 55 56 56
28 25 21 19 19 18 19 20 21 22 23 24 24 25 24 23 23 23 22 20 19 20 21 20 19 19 19 20 21 23 25 28 30 33 36 39 43 47 50 54 59 61 60 59 59 59 58 58 58 58 58 58 57 56 55 55 54 53 50 48 48 48 48 48 48 47 48 50 54 56 57 57 56 54 55 54 54 54 54 54 54 54 55 56 57 57 57
22 19 16 15 15 16 17 19 20 21 22 23 23 23 23 21 20 20 20 19 17 17 18 17 16 15 16 16 17 19 22 25 27 30 34 37 41 44 47 50 55 59 61 62 61 61 60 59 60 59 59 58 58 57 57 56 56 54 51 49 49 49 49 49 49 49 50 51 53 54 55 55 53 53 56 56 56 57 57 57 56 56 56 57 57 57 57
16 14 13 12 13 14 16 17 18 19 20 21 22 22 22 21 19 18 17 17 15 14 14 15 14 13 13 13 14 16 19 22 25 29 32 36 39 42 45 47 52 57 61 63 63 63 62 62 61 61 61 60 59 59 58 58 57 55 53 52 51 51 51 52 53 53 53 53 53 54 54 53 52 53 54 54 56 58 59 60 59 59 59 59 59 59 59
12 10 10 10 11 13 14 15 16 18 19 20 21 21 21 21 20 18 17 15 14 13 12 12 12 11 10 11 12 14 16 18 22 26 30 34 37 41 43 45 49 53 58 62 64 65 64 64 63 63 62 62 61 61 60 59 58 58 56 55 55 55 55 55 55 55 55 56 55 55 55 53 54 55 54 53 54 56 57 59 59 59 60 61 61 62 62
9 8 7 8 10 12 13 14 16 17 19 20 21 21 21 21 21 20 19 16 14 12 10 10 10 9 9 8 9 11 13 16 19 23 27 31 35 39 42 44 47 50 54 58 62 65 66 66 66 65 65 64 64 63 62 61 61 60 59 59 58 58 57 57 57 56 57 58 57 57 57 57 58 59 57 55 55 55 56 56 56 57 58 59 60 62 63
7 5 5 7 9 10 12 14 16 17 19 20 21 21 21 21 21 21 21 19 16 12 10 9 8 8 8 7 7 9 11 13 16 19 23 28 33 37 40 43 45 47 50 54 58 63 66 67 67 67 67 66 66 65 65 65 64 63 63 62 61 61 61 61 62 61 60 61 62 62 62 61 61 61 60 58 57 58 57 56 56 56 56 56 58 59 61
5 3 4 6 8 10 13 15 17 18 19 20 21 21 21 22 22 21 20 19 18 15 14 12 9 7 7 7 7 7 9 11 14 17 20 24 28 33 37 40 43 45 47 50 54 59 62 65 67 68 67 68 69 69 69 68 67 66 66 65 65 64 65 65 65 64 64 66 67 66 65 65 63 63 63 61 60 60 60 58 58 57 56 56 57 58 59
3 2 3 5 8 11 14 16 17 18 20 20 21 21 21 21 21 21 20 19 18 18 17 15 12 9 6 5 6 7 8 9 12 14 17 20 23 28 32 37 40 44 46 49 52 55 58 61 65 67 69 72 73 72 71 71 70 69 69 69 68 68 67 66 66 67 68 70 70 69 69 69 66 65 65 64 63 63 62 60 60 60 59 59 59 59 60
2 1 3 5 9 12 15 17 18 19 19 20 20 20 20 20 20 20 20 20 20 19 18 16 15 12 10 7 5 5 6 8 10 12 14 17 20 23 27 32 36 40 43 47 50 53 55 58 62 66 70 74 74 73 74 73 72 72 71 71 71 70 69 69 69 69 70 72 72 72 73 72 69 67 68 68 67 66 64 63 63 62 62 63 62 62 62
1 1 3 6 10 13 15 17 18 19 19 19 19 19 19 20 20 21 21 21 21 20 18 17 16 15 13 11 8 6 5 6 8 10 12 15 17 20 23 27 31 35 39 43 46 50 52 55 59 64 68 71 72 74 75 75 74 74 74 74 74 73 73 72 73 73 75 75 75 75 77 76 72 71 71 72 72 70 68 67 66 65 66 67 65 65 65
1 1 3 7 10 13 15 17 18 18 18 18 18 19 20 20 21 21 21 21 21 20 19 18 17 16 15 13 12 10 7 6 6 8 11 13 15 17 20 23 27 30 34 38 42 46 49 52 55 59 63 66 69 72 74 75 76 76 77 77 78 77 76 76 76 77 78 78 77 79 80 78 75 74 74 75 75 73 71 70 69 68 70 71 70 69 69
1 1 4 7 11 13 15 17 17 18 18 18 18 19 20 21 21 21 21 21 20 21 20 20 19 18 17 15 14 12 10 8 6 6 8 10 13 16 18 20 23 26 29 33 37 41 45 48 52 55 58 61 63 67 70 72 75 77 79 80 81 80 78 79 80 81 81 80 81 82 82 80 78 77 78 78 78 77 75 74 72 72 74 75 74 73 73
1 1 4 8 11 13 15 16 17 17 17 17 18 18 19 20 21 21 21 21 21 21 21 21 20 19 18 18 16 15 12 10 8 7 6 7 10 13 16 18 21 23 25 28 31 35 39 43 47 51 54 56 59 62 65 66 70 73 76 79 82 81 81 83 84 83 83 84 84 85 84 82 81 81 81 81 81 80 79 78 76 76 78 78 77 76 75
1 1 4 7 10 13 15 16 16 16 17 17 18 18 19 20 21 21 21 21 21 21 21 21 20 19 19 18 18 17 16 14 12 10 8 7 7 9 13 16 19 21 23 25 27 30 33 37 40 45 49 51 54 57 60 61 64 67 69 73 77 78 80 83 85 85 85 86 87 87 86 85 85 84 84 84 84 83 82 82 81 81 81 81 80 79 78
2 1 5 7 10 13 15 15 16 16 17 17 18 19 20 20 21 21 21 20 20 20 21 21 21 21 20 20 19 18 18 17 15 13 12 10 9 8 10 12 15 19 21 24 26 28 30 32 35 39 42 45 48 52 55 57 60 62 64 67 71 73 75 78 81 83 85 86 87 87 87 87 87 86 86 86 86 86 86 85 85 84 84 84 83 82 82
2 2 5 7 10 13 15 16 16 16 17 18 19 20 20 21 21 21 21 20 21 21 21 22 23 23 23 22 21 20 20 19 17 16 15 14 12 11 10 10 12 14 18 21 24 27 29 31 33 35 38 40 43 45 48 51 54 56 59 62 66 68 69 72 76 79 80 82 83 84 85 86 86 87 87 87 87 87 87 87 87 88 87 87 86 86 85
2 1 4 7 10 13 15 15 15 15 16 18 19 20 20 21 21 20 20 20 21 21 22 22 22 23 23 23 23 22 21 20 19 19 18 17 16 14 13 12 12 12 14 17 20 24 27 30 32 34 36 38 39 41 43 46 48 50 53 56 59 62 65 68 71 73 74 76 77 79 81 82 83 84 85 86 86 86 87 87 87 88 88 88 88 87 87
2 1 4 6 9 12 14 14 14 14 15 17 18 19 19 19 19 19 20 20 21 22 22 23 23 23 24 24 24 23 23 22 21 21 20 19 18 17 16 15 14 14 14 15 17 19 23 26 30 32 34 36 37 38 40 42 44 46 47 49 52 56 60 63 65 67 68 69 70 72 74 76 78 80 81 82 83 84 84 85 85 86 86 87 87 86 86
3 2 4 6 9 12 14 14 13 13 14 16 18 18 18 18 18 18 19 20 22 23 24 24 25 25 25 26 26 25 25 24 23 22 21 21 20 20 19 18 17 16 16 16 17 18 19 22 25 28 31 34 36 37 39 40 41 43 44 45 47 50 53 56 58 60 61 62 64 67 69 71 72 73 75 76 77 79 80 81 82 82 83 83 84 84 84
3 2 4 6 9 11 13 14 13 13 14 16 17 17 16 17 17 18 20 21 23 25 26 27 27 27 27 28 28 28 28 27 26 24 23 22 21 21 21 20 20 19 18 18 18 18 19 20 22 24 27 30 32 35 37 38 39 41 42 43 45 46 48 50 52 54 55 56 58 61 63 64 65 66 68 71 72 73 75 76 77 78 79 80 81 82 82
4 2 3 6 8 11 13 13 13 13 14 16 16 16 16 17 18 19 21 23 24 26 27 28 28 29 29 29 29 30 30 30 29 28 26 23 22 22 22 22 21 21 20 20 19 19 20 20 21 22 24 26 28 31 33 35 37 39 40 41 42 44 46 47 48 50 51 51 52 54 57 58 59 61 63 65 67 68 69 71 72 74 75 77 78 79 79
4 3 3 5 7 10 12 13 13 13 14 15 15 14 15 17 18 20 21 23 25 26 28 29 29 30 30 30 30 31 31 31 31 31 29 27 25 24 23 23 23 22 21 21 20 20 20 21 21 21 22 23 25 27 29 31 34 36 38 39 40 42 43 44 45 47 48 48 48 50 52 53 54 55 58 60 61 63 64 65 67 69 70 72 74 75 76
5 3 3 5 7 9 11 12 12 13 13 13 13 14 15 16 18 20 22 23 25 27 29 30 30 31 31 31 31 32 32 32 32 32 32 30 28 27 25 25 24 24 23 22 22 21 21 21 21 21 22 22 23 24 26 28 31 33 35 36 38 39 41 42 42 43 44 45 45 47 49 50 50 52 53 55 57 58 60 61 62 64 65 67 68 69 71
6 4 4 5 7 9 11 12 12 12 12 12 12 13 14 16 17 19 21 23 25 27 29 31 31 32 32 32 33 33 33 33 33 33 34 33 32 30 28 27 27 26 25 24 24 23 22 21 20 20 21 22 22 23 24 25 28 30 31 33 35 36 38 39 39 40 41 42 42 44 45 47 48 49 50 52 53 54 56 57 59 60 61 62 63 64 66
7 6 6 6 7 9 10 12 12 12 12 12 12 13 14 16 18 20 21 23 25 27 29 31 32 34 34 34 34 34 35 35 35 35 35 35 34 33 31 30 29 28 27 27 26 25 24 23 22 20 20 20 21 23 24 24 26 27 29 30 32 33 34 35 36 37 38 39 40 41 43 44 46 46 48 49 50 51 52 54 55 56 58 59 60 61 62
9 8 7 7 8 9 11 13 13 13 12 12 13 14 15 17 18 20 22 24 25 27 29 31 33 35 36 36 36 36 37 37 37 37 37 37 36 35 34 33 32 31 30 29 28 27 26 25 24 22 20 20 20 22 23 24 25 26 27 28 29 30 31 32 33 34 35 36 38 39 41 42 43 44 45 46 48 49 50 51 52 54 54 55 56 57 58
11 10 10 9 10 10 12 14 15 15 14 14 14 15 17 18 20 21 23 24 26 28 29 31 33 35 36 37 37 38 38 39 38 38 39 38 38 37 36 35 34 33 32 31 30 29 28 27 26 25 23 21 21 21 23 24 25 26 26 27 28 29 30 31 32 33 33 34 36 37 39 40 41 42 43 44 45 46 48 49 50 51 52 53 53 54 55
13 12 12 11 11 12 13 15 16 16 16 16 16 17 18 19 21 23 24 25 27 28 30 32 34 36 37 38 38 39 40 40 40 40 40 40 39 38 37 36 36 35 34 33 32 31 30 29 28 27 25 24 23 23 23 24 25 26 26 27 27 28 29 30 31 31 32 34 35 36 37 38 39 40 41 42 43 44 45 46 47 48 49 50 51 52 53
15 14 14 13 13 13 14 16 17 17 18 18 19 19 20 21 22 24 25 26 28 29 31 33 35 37 39 40 40 41 42 42 43 42 41 41 40 39 38 38 37 37 36 35 34 32 31 30 29 28 27 27 26 26 25 26 26 27 27 27 28 28 29 29 30 31 32 33 34 35 36 37 38 38 39 40 41 42 43 44 45 46 47 48 49 50 51
17 16 15 15 15 15 15 16 18 18 19 20 21 21 22 23 24 25 26 27 29 31 32 34 36 39 40 42 42 43 44 44 44 44 43 42 41 41 40 39 39 38 37 36 35 34 33 31 30 30 29 29 28 27 27 27 28 28 28 28 28 28 28 29 29 30 31 32 33 34 35 36 37 38 38 39 39 40 41 42 42 43 44 45 46 47 48
18 17 17 17 16 16 17 18 19 19 21 22 22 23 24 25 25 26 28 29 30 32 33 35 38 40 42 43 44 45 45 46 46 45 44 43 42 42 42 41 40 40 39 38 37 35 34 32 31 30 30 30 30 28 28 28 29 30 30 29 29 28 28 29 29 29 30 31 32 32 33 34 34 35 36 36 37 38 39 39 40 41 42 43 43 44 45
19 19 18 18 17 17 18 19 20 21 22 23 24 24 26 27 27 28 29 30 31 33 34 36 39 41 43 44 45 46 47 47 46 45 45 44 44 43 43 43 42 41 40 39 38 37 35 34 33 32 31 30 31 30 29 29 30 31 31 30 29 29 29 29 29 29 29 30 30 31 31 31 31 32 33 34 34 35 36 37 37 38 39 40 41 42 43
20 20 19 18 18 18 18 19 21 22 24 25 26 26 27 28 29 29 30 31 32 34 36 38 40 42 44 45 46 47 48 47 46 46 45 45 45 45 45 45 44 43 42 41 40 38 37 36 34 33 32 31 31 31 30 29 30 32 32 31 30 29 29 29 29 29 29 29 29 29 29 29 30 30 31 32 32 33 34 34 35 36 37 37 38 39 40
21 20 20 19 19 19 19 20 22 24 25 26 27 28 28 29 30 31 32 32 33 35 37 39 41 44 45 46 47 48 48 48 47 47 47 47 47 47 47 47 46 45 44 42 41 40 38 37 35 34 33 32 31 31 31 30 31 31 33 32 31 29 29 29 29 29 29 29 29 29 28 28 28 29 29 30 32 32 32 33 33 34 35 35 36 37 38
22 21 21 20 21 20 21 22 24 25 26 27 28 29 30 30 31 32 33 34 35 37 38 41 43 45 46 47 48 49 49 48 48 48 49 49 49 49 49 49 48 47 45 44 42 41 39 38 36 34 34 34 33 32 32 31 31 32 32 33 31 29 29 29 29 29 29 29 29 28 27 27 28 28 29 30 31 31 31 31 32 32 33 34 34 35 36
23 22 21 21 22 22 22 24 25 26 27 28 29 30 31 32 32 33 34 35 36 38 40 42 44 45 46 48 49 50 49 49 49 49 50 51 51 51 51 51 51 49 48 46 44 42 40 39 37 36 35 35 34 33 32 32 31 31 32 33 32 30 29 29 29 29 29 29 28 28 27 27 27 28 29 29 30 30 31 31 31 32 32 33 33 34 35
23 23 22 22 23 23 24 25 27 27 28 29 30 31 32 33 33 34 35 36 38 40 42 44 45 46 47 49 50 50 49 49 49 50 52 52 52 52 52 52 52 51 49 47 45 43 41 39 39 38 37 36 35 34 33 32 31 31 31 32 32 31 30 28 28 29 29 29 28 27 27 27 27 28 29 30 30 30 30 30 31 31 32 33 33 33 34
24 23 23 23 24 25 26 26 27 28 29 31 32 32 33 34 35 35 37 38 39 42 44 45 47 48 49 50 50 50 49 49 50 52 53 53 53 53 53 53 52 51 50 48 46 44 42 40 39 38 38 37 36 35 34 33 31 30 31 31 32 32 31 30 28 28 29 29 29 28 27 27 27 28 29 30 30 30 30 31 31 32 32 32 33 33 33
24 24 24 24 26 27 27 27 28 29 30 32 33 34 35 35 36 36 38 39 41 43 45 46 48 49 50 50 50 50 50 50 51 52 54 55 54 54 53 52 52 51 50 49 47 45 44 42 41 40 38 38 37 36 35 33 32 31 30 30 31 31 31 31 30 29 29 29 29 28 27 26 27 28 29 29 30 30 30 31 31 32 32 32 32 32 32
24 24 25 26 27 28 28 27 28 30 32 33 34 36 37 37 37 38 39 41 43 45 46 47 48 50 51 50 50 50 51 52 52 53 55 56 56 55 54 53 52 51 51 50 48 47 45 44 43 42 41 39 38 36 35 34 33 31 30 29 30 30 30 31 31 31 30 30 30 29 28 27 27 27 28 29 30 30 30 31 31 31 31 31 31 31 31
25 25 26 27 28 28 28 28 29 31 33 34 35 37 38 39 39 39 41 43 44 46 47 48 49 50 51 51 51 52 52 53 54 54 56 57 57 56 55 54 53 52 51 50 50 49 47 45 44 43 41 40 38 37 35 33 32 31 30 29 29 30 30 30 31 31 30 30 30 30 29 27 27 27 28 29 29 30 30 30 30 30 30 30 30 30 30
25 26 27 28 28 28 28 29 30 32 34 35 36 38 39 40 41 41 42 44 46 47 48 49 50 51 51 51 52 53 54 55 55 56 57 57 57 57 57 55 54 53 52 51 50 49 47 46 44 43 41 39 37 36 35 33 32 31 30 29 29 29 30 30 31 31 31 30 30 30 30 28 28 28 28 29 29 29 29 29 29 29 29 29 29 29 29
26 26 27 28 29 29 30 31 32 33 35 36 37 39 40 41 42 43 45 46 47 48 49 50 51 51 52 52 53 55 56 57 57 58 58 58 57 57 57 56 55 54 53 52 50 49 47 45 44 42 39 37 35 34 33 32 31 30 29 28 28 28 29 30 30 31 31 30 30 30 30 30 29 28 29 29 29 29 29 29 29 29 29 28 28 28 28
26 27 28 29 30 30 31 32 34 35 36 37 38 39 40 42 43 45 46 47 48 49 51 52 52 52 52 53 55 56 58 58 59 59 59 58 57 57 56 56 56 55 54 53 52 50 47 45 44 42 39 36 34 33 32 31 30 29 28 28 27 27 28 29 30 30 30 30 30 30 30 30 30 30 29 29 29 29 29 29 29 29 28 28 28 28 28
Wind_Direction
278 279 280 280 281 281 281 280 280 279 279 279 279 279 279 278 277 276 275 273 271 270 269 267 265 263 261 258 256 254 250 249 249 247 246 245 244 244 241 238 236 236 235 234 232 231 231 231 230 231 233 232 231 231 230 228 228 228 228 229 230 231 231 231 233 234 235 234 233 234 234 234 235 236 238 239 240 241 241 242 244 245 245 246 247 248 248
279 280 281 282 283 283 282 282 282 282 282 282 282 282 281 281 280 279 278 276 274 272 270 269 266 264 262 259 256 253 249 247 247 245 243 242 242 241 239 237 235 234 234 233 230 229 229 229 228 230 232 230 229 231 231 228 228 229 229 227 228 229 230 230 232 234 236 235 234 234 234 234 235 235 236 237 239 240 241 241 242 244 245 246 246 247 247
281 282 283 284 284 284 284 285 286 286 286 286 285 285 285 285 284 283 282 280 279 277 274 271 268 264 261 259 257 253 248 246 245 243 241 240 239 238 237 236 234 231 231 230 228 226 227 227 226 228 231 230 229 232 233 230 228 228 228 227 226 227 228 230 232 234 236 235 234 234 233 233 233 234 234 236 238 239 240 241 242 242 243 245 245 246 247
282 283 284 285 285 287 288 289 290 290 289 289 289 289 290 290 289 288 287 285 284 281 278 275 271 267 262 258 256 255 250 245 242 241 240 239 237 236 235 235 233 230 229 229 227 226 225 225 224 227 229 229 230 232 232 231 230 229 228 228 227 227 227 228 230 232 234 235 235 235 234 234 234 234 234 236 237 239 240 241 241 242 243 244 245 246 247
283 284 285 287 289 291 292 292 292 291 292 292 293 293 293 293 293 292 290 289 286 282 278 276 273 270 265 259 255 253 250 244 240 238 238 236 235 233 232 231 231 230 228 228 227 225 225 224 223 225 226 226 229 231 231 231 232 231 231 230 230 230 228 227 228 230 232 234 236 236 235 235 235 235 235 235 236 238 239 241 242 242 243 244 244 246 247
284 286 288 291 292 292 292 292 292 294 295 295 296 296 296 296 295 293 292 291 288 283 279 276 274 270 265 261 256 252 248 243 239 236 235 234 232 230 229 229 229 228 227 227 226 225 225 224 224 225 226 226 229 231 230 231 232 231 232 232 233 234 233 232 231 231 232 233 236 237 237 237 237 236 236 236 236 236 238 240 241 242 243 244 244 245 246
286 289 292 293 293 292 291 292 294 295 296 297 298 299 300 300 300 299 298 296 292 288 284 281 276 271 266 261 256 251 246 242 238 234 233 231 229 228 227 227 227 227 226 226 225 225 226 226 225 226 226 226 228 230 231 231 232 232 232 232 233 235 236 236 236 235 234 234 235 237 237 237 237 237 236 237 237 237 238 240 241 241 242 243 243 243 244
289 292 293 292 291 291 293 295 297 299 301 303 304 306 307 307 306 304 302 299 295 292 289 286 281 275 269 262 255 248 243 239 236 233 231 228 226 226 225 225 225 225 225 225 225 225 226 226 225 226 226 227 228 230 230 231 232 233 232 233 234 235 236 237 237 238 238 238 238 239 239 239 239 239 240 240 240 240 240 240 241 242 242 243 243 243 244
291 292 291 290 291 293 296 299 303 307 310 312 313 314 314 312 311 310 308 305 301 296 293 291 286 280 272 262 254 247 241 236 233 231 229 226 224 224 224 223 223 224 224 224 224 225 225 226 226 226 227 227 228 229 230 231 232 233 233 234 236 236 238 239 239 240 240 240 241 242 243 243 243 243 244 245 244 244 244 243 243 243 243 244 244 245 245
289 289 288 289 293 297 301 306 311 316 319 320 321 321 321 321 321 321 319 315 310 304 299 295 290 282 273 264 254 246 240 234 230 227 226 224 223 223 223 222 222 222 222 222 223 224 225 225 226 226 227 228 228 229 230 232 233 233 233 235 237 237 239 241 241 241 240 241 242 243 244 245 245 244 244 245 245 245 246 246 246 246 246 246 246 247 247
284 283 286 290 296 302 309 314 321 326 328 328 329 330 331 331 331 331 330 326 320 313 306 301 295 286 274 264 254 245 239 234 229 226 224 223 222 221 222 221 221 222 222 222 222 223 224 225 226 226 227 228 228 229 230 231 233 233 232 233 236 237 238 239 240 241 242 242 243 245 246 247 247 246 245 244 245 245 246 246 247 247 247 248 249 249 249
275 277 284 292 300 308 315 322 329 333 335 335 336 338 339 340 340 342 343 340 333 324 316 308 302 294 281 267 255 246 239 234 230 227 224 223 222 221 220 220 221 222 222 222 222 222 223 224 225 226 227 228 229 229 230 231 232 233 233 232 234 236 237 239 240 242 243 245 245 246 247 248 249 248 246 245 244 244 245 246 247 248 248 249 249 250 250
265 272 284 298 309 316 323 330 337 340 341 342 343 343 344 347 350 351 352 351 348 341 333 323 313 305 293 276 260 250 242 235 231 229 227 224 223 222 221 220 220 221 222 222 223 223 224 224 225 225 226 227 229 229 230 230 231 232 232 232 232 234 236 239 241 242 243 245 245 246 246 246 247 248 247 246 246 246 246 246 247 248 249 249 250 251 252
255 269 293 311 320 327 333 339 344 346 347 347 347 347 349 352 354 355 356 357 357 356 354 348 335 321 309 293 271 254 246 239 233 230 228 226 225 225 224 222 222 222 222 222 223 224 224 225 226 226 227 228 229 229 230 230 231 231 232 232 232 233 234 236 238 239 241 242 243 244 244 245 246 248 248 248 248 248 248 247 247 247 248 249 251 251 252
249 274 312 326 334 338 342 346 349 351 351 350 350 351 353 354 355 356 358 359 1 5 7 4 357 344 328 311 292 268 251 242 236 233 230 229 228 228 227 226 224 223 223 223 224 225 226 226 227 228 228 229 230 230 230 231 231 231 232 232 233 233 234 235 236 238 240 241 243 244 245 246 246 248 249 249 249 249 249 249 249 249 248 249 249 250 251
243 296 335 343 345 346 348 350 352 354 353 352 352 353 354 356 356 356 357 359 5 10 10 6 5 3 353 331 308 289 270 254 242 236 233 231 231 231 230 230 229 227 225 223 223 225 225 226 227 228 229 230 230 231 231 232 232 232 232 233 233 234 235 236 237 239 240 242 244 245 246 246 247 248 250 250 250 250 250 251 251 252 251 250 250 250 251
237 338 356 356 353 352 352 352 353 356 356 354 353 354 356 359 0 360 0 2 6 9 9 9 10 9 6 358 334 302 282 269 258 248 240 234 232 231 232 232 233 233 231 229 228 227 225 225 226 227 229 230 231 232 232 233 233 233 234 234 234 235 235 236 237 238 240 241 243 245 246 247 247 247 249 250 251 251 251 251 252 253 253 253 252 252 252
211 5 5 1 359 356 354 354 354 356 357 356 356 358 0 3 5 5 6 7 6 5 6 10 13 13 12 8 0 343 308 277 265 258 251 244 238 234 232 232 233 234 235 235 234 234 232 229 227 227 228 230 231 232 233 234 234 235 236 236 236 236 236 236 237 237 239 240 241 243 245 245 246 246 247 249 250 250 250 251 252 253 253 253 253 253 254
170 15 7 4 2 358 355 355 356 357 359 360 1 2 4 6 8 8 9 8 6 5 6 9 11 13 14 14 11 5 351 322 286 266 257 253 248 244 239 236 234 234 235 235 236 236 237 236 235 233 232 232 232 232 233 233 234 235 236 237 237 237 237 238 238 238 239 240 241 243 245 246 246 246 247 248 249 250 250 251 251 252 253 254 254 253 254
163 6 6 4 2 359 357 357 358 359 2 4 5 6 6 7 8 10 10 9 8 8 9 10 11 11 12 13 14 13 7 355 333 302 275 261 254 251 248 244 240 238 236 236 236 236 237 238 239 239 239 238 237 236 236 234 234 234 235 236 238 238 238 239 239 240 241 241 242 243 245 246 246 247 248 249 249 250 250 250 250 251 252 253 254 254 255
176 0 5 2 0 359 360 1 2 3 5 7 8 8 8 8 8 9 10 10 10 11 11 11 12 13 13 13 12 11 11 7 357 341 315 288 268 258 254 251 248 245 242 240 239 238 238 238 239 240 241 241 241 241 241 240 239 238 237 237 238 238 238 239 240 241 242 243 243 244 245 246 247 247 248 249 250 250 251 251 251 251 252 253 254 255 256
190 357 4 1 359 1 3 4 6 8 9 10 10 9 8 8 8 8 10 11 12 13 13 13 13 15 15 15 14 12 11 9 4 357 344 324 300 279 266 259 254 252 248 245 243 241 240 240 240 240 241 241 241 242 243 243 243 243 243 242 242 242 241 241 242 242 242 243 244 245 245 246 247 247 248 249 250 251 252 252 252 252 253 254 255 255 256
199 355 2 359 359 2 4 6 10 12 13 12 11 8 7 7 7 7 9 11 13 15 15 14 14 13 13 14 14 13 12 11 7 2 355 344 330 310 288 273 263 257 254 251 249 246 244 243 242 242 242 243 242 242 243 243 243 243 244 245 245 246 245 245 245 245 245 245 246 247 247 247 248 248 249 249 250 251 252 252 253 253 254 254 255 255 256
195 348 356 356 358 1 3 6 11 13 13 12 10 7 5 5 6 6 8 11 14 16 16 16 14 12 11 10 11 11 11 10 8 5 0 352 343 332 316 297 279 267 260 256 253 251 249 247 246 245 245 244 244 243 243 244 244 243 243 243 245 246 246 246 247 247 248 248 249 250 250 250 250 251 251 251 251 252 252 253 253 254 254 255 255 255 255
191 345 351 353 357 0 2 5 10 12 12 10 8 5 3 3 5 6 9 11 13 14 15 15 15 12 9 7 7 8 8 8 8 7 3 357 350 342 332 321 308 292 277 265 259 255 252 251 250 249 248 248 247 246 245 245 245 245 243 243 244 245 245 246 246 247 247 248 249 250 251 251 252 252 253 253 253 254 254 254 254 255 255 256 256 256 256
208 322 345 353 358 1 1 3 7 10 9 8 5 2 2 3 6 8 10 11 12 12 13 14 14 13 10 7 5 5 5 6 6 6 4 1 355 349 341 334 325 315 303 289 276 266 259 255 253 251 251 250 249 249 248 248 248 247 246 244 244 245 245 246 247 248 248 248 249 249 250 250 251 251 252 253 253 254 254 255 255 255 256 256 257 257 258
226 299 338 354 360 0 360 2 5 7 7 5 2 1 4 8 10 12 12 13 12 12 13 14 14 13 11 8 5 4 3 3 3 3 3 2 358 353 348 342 335 327 318 308 297 285 274 266 260 256 254 252 252 251 250 249 249 249 249 247 246 246 247 247 248 249 249 249 249 250 250 250 251 251 252 253 253 253 254 254 255 255 256 257 257 258 258
231 287 334 353 358 357 358 1 5 6 4 2 1 4 10 14 15 16 15 15 14 12 11 11 10 9 9 7 5 3 2 1 360 359 359 0 359 356 352 347 341 335 327 319 311 301 291 281 273 266 261 257 255 253 252 251 250 250 250 249 249 249 249 249 249 250 250 250 250 250 251 251 252 252 252 253 253 253 254 254 255 255 256 256 257 257 258
230 272 329 349 354 354 356 1 5 5 3 0 2 9 15 16 16 18 17 15 12 9 7 6 5 4 5 5 3 2 0 359 357 355 355 356 357 355 352 349 345 340 334 328 321 313 304 295 286 278 271 266 261 258 255 253 252 251 250 250 250 249 249 250 250 251 251 251 251 252 252 252 253 253 253 253 253 254 254 254 254 255 255 256 256 257 257
231 262 316 342 348 351 355 1 5 5 2 0 4 12 16 15 15 15 14 12 10 6 4 2 1 -0 0 1 360 359 358 356 355 352 351 351 353 353 351 349 346 343 338 333 327 320 313 306 298 289 281 274 269 264 260 256 254 252 251 251 251 251 251 251 251 251 252 252 252 253 253 253 253 253 253 254 254 254 254 254 254 254 255 255 256 256 257
234 257 301 328 339 348 354 359 2 2 1 1 4 9 11 11 11 11 9 8 7 4 2 0 358 357 357 357 356 355 354 354 353 351 348 348 349 350 349 348 345 343 340 336 331 326 320 314 307 299 291 284 277 270 265 261 258 255 253 252 251 252 252 252 252 253 253 253 252 253 253 254 254 254 254 254 254 255 255 255 255 255 255 256 256 256 257
239 258 287 311 329 342 350 354 355 356 357 357 359 1 2 4 5 4 4 3 2 1 0 358 356 355 354 353 353 352 351 351 351 349 347 346 347 347 347 347 344 342 341 338 334 329 325 319 314 307 299 291 284 278 272 266 262 259 257 255 254 253 253 254 254 254 255 254 254 253 253 253 253 253 253 253 254 254 255 255 256 256 257 257 257 257 257
243 259 277 297 315 330 341 345 346 348 350 350 349 349 352 354 356 357 357 357 356 356 356 355 353 352 351 351 350 349 349 349 349 347 345 344 345 345 346 345 343 341 340 338 335 331 327 323 318 313 306 298 290 284 278 273 269 265 262 260 258 257 256 256 255 255 255 255 255 255 255 254 254 254 254 254 254 254 254 254 255 256 256 257 257 258 258
245 258 271 286 301 315 327 334 337 339 342 342 341 340 340 342 345 346 348 349 348 349 351 351 350 349 348 348 348 347 347 347 346 344 342 342 342 343 344 344 342 341 339 337 335 333 329 325 321 318 313 305 296 288 283 278 274 271 268 265 263 261 260 258 257 256 255 255 255 255 256 256 257 257 257 257 257 256 256 255 255 255 256 256 257 257 258
245 257 268 278 290 303 313 321 326 332 335 337 337 336 334 334 335 336 338 340 342 343 345 347 347 346 346 346 345 344 344 344 343 342 340 340 340 340 341 342 341 340 338 336 334 333 330 326 323 320 316 311 304 296 288 282 278 275 272 270 268 266 264 263 262 260 259 258 257 257 257 257 258 258 259 259 259 259 259 258 258 257 257 257 257 257 258
245 256 266 276 285 294 302 309 316 324 330 332 333 333 332 332 332 331 331 333 336 337 339 342 343 343 344 343 342 341 341 342 341 340 339 338 338 338 339 339 339 338 338 336 334 333 330 327 324 321 318 314 310 304 296 288 281 277 274 272 270 269 267 266 265 264 263 262 261 260 260 259 259 259 259 259 259 260 260 260 260 260 259 259 258 258 258
246 256 265 274 281 288 295 301 308 315 322 327 330 330 329 330 330 329 329 330 331 333 335 337 339 341 341 341 340 339 340 340 339 338 337 336 336 336 337 338 337 337 336 335 334 332 330 327 324 321 319 316 312 309 303 296 289 282 276 272 270 268 267 267 266 266 265 265 264 263 263 262 262 261 260 260 260 260 260 260 260 260 260 259 259 259 259
247 256 264 272 280 287 295 300 303 307 314 321 326 328 327 328 328 328 328 328 328 329 331 334 336 338 339 339 338 338 339 338 338 337 336 335 335 335 335 336 335 335 335 334 333 332 329 326 324 322 319 316 313 309 306 301 295 288 282 277 273 270 268 267 266 266 266 265 265 264 264 264 263 263 263 263 262 262 262 261 261 261 260 260 260 259 259
248 255 263 270 277 287 296 300 302 304 308 315 321 324 324 325 326 327 326 325 326 327 329 331 334 336 337 336 336 337 337 337 336 335 334 334 334 333 333 334 334 334 333 333 332 331 328 326 323 321 319 316 312 309 307 303 299 293 287 282 278 274 271 270 268 267 267 266 266 266 265 265 265 265 265 264 264 264 263 263 263 262 261 261 261 261 260
247 254 261 268 276 285 294 300 302 302 304 309 315 319 320 322 324 325 324 324 324 325 327 330 332 334 334 334 335 335 336 336 335 334 333 333 332 332 332 332 332 332 332 331 331 330 328 325 323 321 318 315 312 310 307 304 300 295 290 286 282 278 275 272 271 270 269 269 269 268 268 267 267 266 265 265 264 264 264 264 264 264 263 263 262 262 262
247 253 260 268 275 283 291 297 299 300 301 305 310 314 317 319 321 322 323 323 323 324 326 329 331 331 332 333 334 335 335 335 334 333 332 332 332 332 332 331 331 330 330 330 329 329 327 325 323 320 317 315 312 310 307 304 301 297 293 288 284 280 277 274 272 271 271 271 271 270 270 269 269 268 268 267 266 266 265 265 265 265 265 265 265 264 264
247 253 261 268 275 282 289 294 297 298 299 303 306 310 313 316 319 321 322 322 322 323 325 328 329 330 330 331 333 334 334 334 333 332 332 332 332 332 331 330 330 329 329 329 328 327 326 324 322 321 318 316 313 310 308 305 302 298 295 291 287 284 280 276 274 273 273 272 272 271 271 271 271 270 269 269 269 268 268 268 268 268 268 268 268 267 267
247 254 260 267 274 280 287 292 295 297 298 301 304 307 311 314 318 320 321 321 321 322 325 327 328 328 329 330 331 332 333 332 332 331 331 331 331 331 331 330 328 328 328 328 327 326 325 324 322 321 319 317 313 311 308 305 302 300 296 293 289 286 282 278 277 275 274 273 273 272 272 272 272 271 270 269 269 269 270 270 271 271 271 271 270 270 269
249 255 261 267 273 279 285 290 293 296 298 299 302 305 309 313 316 319 320 320 321 322 324 325 326 327 328 329 330 331 331 330 329 329 329 329 330 330 330 329 328 327 327 327 326 326 325 323 322 321 320 317 313 310 307 304 302 300 297 293 290 287 283 279 278 276 275 274 273 273 273 273 273 272 271 270 270 271 271 271 272 272 272 272 272 272 271
250 256 262 268 273 279 284 289 292 295 297 299 301 304 308 312 315 318 319 319 319 321 323 324 325 326 327 328 329 330 330 329 328 327 327 328 329 329 329 328 326 326 325 325 325 324 324 323 322 322 320 317 313 310 306 304 302 300 297 294 290 287 284 280 278 276 275 274 274 274 274 274 274 274 273 273 272 272 272 272 272 272 272 272 272 272 272
251 257 263 268 273 278 283 287 291 294 297 298 301 304 308 311 315 317 317 317 319 321 323 324 324 325 327 328 329 329 328 328 327 326 326 327 327 328 327 326 325 324 324 324 325 324 324 323 323 321 319 316 313 309 306 304 302 299 296 293 290 288 285 283 279 276 275 274 274 274 274 274 274 274 274 274 273 273 273 272 272 272 272 272 273 273 273
251 257 262 267 272 277 282 286 291 294 296 298 301 304 307 310 314 316 316 317 319 321 322 323 324 325 326 327 328 328 327 326 326 326 326 326 326 326 326 325 324 324 324 324 324 324 324 324 323 321 318 315 312 309 307 304 302 299 296 292 289 287 285 284 282 279 276 275 275 275 275 274 274 274 274 274 273 273 273 272 272 272 272 273 273 274 274
251 257 263 267 272 276 281 286 290 293 295 298 301 304 306 310 313 314 315 317 319 320 321 322 323 324 325 326 327 326 326 325 325 326 326 325 325 325 325 325 325 325 324 324 325 325 325 324 323 321 318 315 312 309 307 305 302 299 296 293 289 286 284 282 281 280 279 277 276 276 276 274 273 273 273 273 273 273 272 272 272 273 273 274 275 275 275
252 258 263 267 271 276 281 285 289 292 295 298 301 303 306 309 312 313 315 316 318 319 320 321 322 324 325 326 326 325 325 325 325 326 326 326 326 325 325 325 325 325 324 324 325 324 324 324 323 320 317 315 312 309 307 305 302 299 297 293 290 287 284 282 281 280 279 278 277 277 276 275 273 272 272 272 272 272 272 272 272 273 274 275 275 276 276
253 258 263 267 271 276 281 285 288 291 294 297 299 302 305 308 311 313 315 316 317 318 319 320 322 323 324 325 325 325 324 325 326 326 326 326 326 326 325 325 324 324 324 324 324 324 323 323 322 319 316 314 312 309 307 304 302 300 297 294 291 287 285 283 282 281 279 278 278 277 277 276 275 273 273 273 273 273 273 273 273 274 275 276 276 276 276
254 258 263 268 272 277 281 284 287 290 293 296 299 302 306 308 310 313 315 316 317 318 319 320 322 323 324 325 325 324 324 325 326 327 326 326 326 325 324 324 323 323 323 324 324 324 324 323 321 318 316 314 312 309 307 305 303 300 298 295 291 288 286 284 283 282 281 280 279 278 278 277 276 275 274 274 274 274 274 274 274 274 275 275 276 276 276
255 259 264 269 273 277 280 283 286 289 292 296 299 303 306 308 311 313 315 316 317 318 319 320 322 323 324 325 325 325 325 325 326 326 326 325 325 324 323 323 322 323 323 323 323 323 323 323 321 318 316 315 313 310 307 305 303 301 298 295 292 289 286 284 282 281 281 280 279 278 278 278 277 277 276 276 276 276 275 275 274 274 274 274 275 276 276